Location: Czekanka
(50.4925°N, 19.2643°E)
Time: 21:21:38
(UTC+00:00)

NOSS 3-2 (A) - Visible Passes

Search period start: 13 September 2024 00:00
Search period end: 23 September 2024 00:00
Orbit: 703 x 1502 km, 63.4° (Epoch: 12 August)

Date Brightness Start Highest point End Pass type
(mag) Time Alt. Az. Time Alt. Az. Time Alt. Az.
13 Sep 4.8 01:46:10 16° SSE 01:49:21 27° ESE 01:54:17 10° ENE visible
13 Sep 3.4 03:34:08 10° SW 03:39:29 68° NW 03:45:58 10° NE visible
14 Sep 5.2 01:02:08 14° SE 01:04:06 16° ESE 01:07:35 10° ENE visible
14 Sep 3.3 02:49:31 17° SW 02:53:41 84° SE 03:00:02 10° NE visible
15 Sep 3.7 02:05:26 29° S 02:08:02 55° SE 02:14:04 10° NE visible
16 Sep 4.2 01:21:19 31° SE 01:22:33 34° ESE 01:27:58 10° NE visible
16 Sep 3.6 03:08:41 16° WSW 03:12:59 58° NW 03:19:27 10° NE visible
17 Sep 4.9 00:37:09 21° ESE 00:37:15 21° ESE 00:41:33 10° ENE visible
17 Sep 3.2 02:24:31 33° SW 02:27:05 81° NW 02:33:32 10° NE visible
17 Sep 5.6 23:52:57 12° E 23:52:57 12° E 23:54:13 10° E visible
18 Sep 3.3 01:40:19 56° S 01:41:21 69° SE 01:47:36 10° NE visible
18 Sep 4.2 03:27:41 12° W 03:32:38 39° NNW 03:38:56 10° NE visible
19 Sep 3.9 00:56:05 43° ESE 00:56:05 43° ESE 01:01:34 10° NE visible
19 Sep 3.8 02:43:28 25° W 02:46:31 50° NNW 02:52:57 10° NE visible
20 Sep 4.9 00:11:50 24° E 00:11:50 24° E 00:15:20 10° ENE visible
20 Sep 3.3 01:59:12 51° WSW 02:00:33 68° NW 02:07:01 10° NE visible
20 Sep 4.7 03:47:23 10° WNW 03:52:33 30° NNW 03:58:37 10° NE visible
20 Sep 5.7 23:27:33 13° E 23:27:33 13° E 23:28:37 10° ENE visible
21 Sep 3.2 01:14:55 82° E 01:14:55 82° E 01:21:06 10° NE visible
21 Sep 4.4 03:02:17 16° W 03:06:16 35° NNW 03:12:28 10° NE visible
22 Sep 4.2 00:30:36 42° ENE 00:30:36 42° ENE 00:35:07 10° NE visible
22 Sep 4.0 02:17:58 32° WNW 02:20:05 43° NNW 02:26:27 10° NE visible
22 Sep 5.2 23:46:17 23° ENE 23:46:17 23° ENE 23:49:00 10° NE visible
